Location: Dannhausen
(51.8650°N, 10.1026°E)
Time: 13:14:01
(UTC+00:00)

APEX - Pass Details

Date: 09 April 2020
Orbit: 331 x 1113 km, 69.9° (Epoch: 27 May)

Event Time Altitude Azimuth Distance (km) Brightness Sun altitude
Rises 18:30:36 0° 326° (NNW) 3,859 8.6 -4.2°
Reaches altitude 10° 18:33:25 10° 326° (NW) 2,828 7.8 -4.7°
Maximum altitude 18:40:05 81° 241° (WSW) 917 4.5 -5.6°
Drops below altitude 10° 18:45:30 10° 154° (SSE) 2,315 6.1 -6.4°
Sets 18:47:38 0° 154° (SSE) 3,121 6.7 -6.7°
